Location: Cucq
(50.4773°N, 1.6202°E)
Time: 08:26:56
(UTC+00:00)

NPP - Pass Details

Date: 07 August 2020
Orbit: 826 x 827 km, 98.7° (Epoch: 26 September)

Event Time Altitude Azimuth Distance (km) Brightness Sun altitude
Rises 02:08:06 0° 13° (NNE) 3,381 8.2 -17.5°
Reaches altitude 10° 02:10:28 10° 12° (NNE) 2,443 7.2 -17.3°
Maximum altitude 02:15:51 72° 289° (WNW) 873 3.7 -16.8°
Enters shadow 02:18:52 27° 210° (SSW) 1,547 4.5 -16.5°
